Fort George G Meade, MD

1:17 AM EST on February 27, 2017 (GMT -0500)
Tipton

Weather History for KFME - May, 2013

Change the Weather History Date:

Friday, May 3, 2013

  Actual Average (KBWI) Record (KBWI)
Temperature  
Mean Temperature 52 °F -  
Max Temperature 64 °F 71 °F 91 °F (1913)
Min Temperature 39 °F 49 °F 34 °F (1986)
Degree Days  
Heating Degree Days 14    
Growing Degree Days 2 (Base 50)    
Moisture  
Dew Point 41 °F    
Average Humidity 65    
Maximum Humidity 100    
Minimum Humidity 39    
Precipitation  
Precipitation 0.00 in - - ()
Sea Level Pressure  
Sea Level Pressure 30.38 in    
Wind  
Wind Speed 5 mph (ESE)    
Max Wind Speed 16 mph    
Max Gust Speed 21 mph    
Visibility 10 miles    
Events      
Averages and records for this station are not official NWS values.
T = Trace of Precipitation, MM = Missing Value Source: NWS Daily Summary

Daily Weather History Graph

Daily Weather History Graph

Search for Another Location

Airport or City:

Trip Planner

Search our weather history database for the weather conditions in past years. The results will help you decide how hot, cold, wet, or windy it might be!

Date:

Astronomy

May. 03, 2013 Rise Set
Actual Time 6:06 AM EDT 8:02 PM EDT
Civil Twilight 5:37 AM EDT 8:31 PM EDT
Nautical Twilight 5:01 AM EDT 9:06 PM EDT
Astronomical Twilight 4:23 AM EDT 9:44 PM EDT
Moon 2:26 AM EDT (5/3) 1:57 PM EDT (5/3)
Length of Visible Light 14h 54m
Length of Day
13h 55m
Last Quarter, 37% of the Moon is Illuminated
May 3
Last Quarter
May 9
New
May 18
First Quarter
May 25
Full
May 31
Last Quarter

Hourly Weather History & Observations

Time (EDT) Temp. Windchill Dew Point Humidity Pressure Visibility Wind Dir Wind Speed Gust Speed Precip Events Conditions
12:03 AM 44.6 °F - 41.0 °F 87% 30.34 in 10.0 mi Calm Calm - N/A   Clear
12:24 AM 44.6 °F - 42.8 °F 93% 30.34 in 10.0 mi Calm Calm - N/A   Clear
12:42 AM 42.8 °F - 41.0 °F 93% 30.35 in 10.0 mi Calm Calm - N/A   Clear
1:03 AM 42.8 °F - 41.0 °F 93% 30.35 in 10.0 mi Calm Calm - N/A   Clear
1:24 AM 42.8 °F - 41.0 °F 93% 30.34 in 10.0 mi Calm Calm - N/A   Clear
1:45 AM 41.0 °F - 41.0 °F 100% 30.34 in 10.0 mi Calm Calm - N/A   Clear
2:03 AM 41.0 °F - 41.0 °F 100% 30.34 in 10.0 mi Calm Calm - N/A   Clear
5:03 AM 39.2 °F - 37.4 °F 93% 30.35 in 10.0 mi Calm Calm - N/A   Clear
5:24 AM 41.0 °F - 37.4 °F 87% 30.36 in 10.0 mi Calm Calm - N/A   Clear
5:45 AM 39.2 °F 35.0 °F 37.4 °F 93% 30.36 in 10.0 mi ENE 5.8 mph - N/A   Clear
6:03 AM 41.0 °F 39.0 °F 39.2 °F 93% 30.37 in 10.0 mi ENE 3.5 mph - N/A   Clear
6:24 AM 41.0 °F 39.0 °F 39.2 °F 93% 30.38 in 7.0 mi East 3.5 mph - N/A   Clear
6:45 AM 42.8 °F 41.1 °F 42.8 °F 100% 30.39 in 7.0 mi ENE 3.5 mph - N/A   Clear
7:03 AM 46.4 °F 44.3 °F 44.6 °F 93% 30.39 in 10.0 mi ENE 4.6 mph - N/A   Clear
7:24 AM 50.0 °F - 46.4 °F 87% 30.40 in 10.0 mi ENE 3.5 mph - N/A   Clear
7:45 AM 51.8 °F - 46.4 °F 82% 30.40 in 10.0 mi East 9.2 mph - N/A   Clear
8:03 AM 53.6 °F - 46.4 °F 77% 30.40 in 10.0 mi East 10.4 mph - N/A   Clear
8:24 AM 53.6 °F - 44.6 °F 72% 30.39 in 10.0 mi East 9.2 mph - N/A   Clear
8:45 AM 57.2 °F - 42.8 °F 59% 30.40 in 10.0 mi East 13.8 mph 20.7 mph N/A   Clear
9:06 AM 55.4 °F - 41.0 °F 58% 30.40 in 10.0 mi East 11.5 mph 16.1 mph N/A   Clear
9:24 AM 57.2 °F - 41.0 °F 55% 30.41 in 10.0 mi East 13.8 mph 18.4 mph N/A   Clear
9:45 AM 57.2 °F - 41.0 °F 55% 30.41 in 10.0 mi East 10.4 mph - N/A   Clear
10:06 AM 59.0 °F - 39.2 °F 48% 30.41 in 10.0 mi East 11.5 mph 16.1 mph N/A   Clear
10:24 AM 59.0 °F - 41.0 °F 51% 30.41 in 10.0 mi East 12.7 mph - N/A   Clear
10:45 AM 60.8 °F - 41.0 °F 48% 30.41 in 10.0 mi East 11.5 mph - N/A   Clear
11:06 AM 60.8 °F - 41.0 °F 48% 30.41 in 10.0 mi ESE 12.7 mph - N/A   Clear
11:24 AM 60.8 °F - 41.0 °F 48% 30.41 in 10.0 mi East 10.4 mph - N/A   Clear
11:45 AM 62.6 °F - 37.4 °F 39% 30.41 in 10.0 mi East 12.7 mph 17.3 mph N/A   Clear
12:06 PM 62.6 °F - 39.2 °F 42% 30.41 in 10.0 mi East 15.0 mph 19.6 mph N/A   Clear
12:24 PM 62.6 °F - 37.4 °F 39% 30.40 in 10.0 mi SE 12.7 mph 16.1 mph N/A   Clear
12:45 PM 62.6 °F - 37.4 °F 39% 30.39 in 10.0 mi East 8.1 mph 16.1 mph N/A   Clear
1:06 PM 62.6 °F - 39.2 °F 42% 30.38 in 10.0 mi ESE 12.7 mph 17.3 mph N/A   Clear
1:24 PM 62.6 °F - 37.4 °F 39% 30.38 in 10.0 mi ESE 13.8 mph 17.3 mph N/A   Clear
1:45 PM 62.6 °F - 37.4 °F 39% 30.38 in 10.0 mi ESE 8.1 mph 16.1 mph N/A   Clear
2:06 PM 64.4 °F - 41.0 °F 42% 30.38 in 10.0 mi East 11.5 mph 18.4 mph N/A   Clear
2:24 PM 64.4 °F - 42.8 °F 45% 30.37 in 10.0 mi East 8.1 mph 17.3 mph N/A   Clear
2:45 PM 62.6 °F - 42.8 °F 48% 30.37 in 10.0 mi SE 9.2 mph 16.1 mph N/A   Clear
3:06 PM 64.4 °F - 42.8 °F 45% 30.37 in 10.0 mi ESE 16.1 mph 20.7 mph N/A   Scattered Clouds
3:24 PM 62.6 °F - 42.8 °F 48% 30.37 in 10.0 mi East 8.1 mph 17.3 mph N/A   Scattered Clouds
3:45 PM 62.6 °F - 41.0 °F 45% 30.37 in 10.0 mi SE 10.4 mph 17.3 mph N/A   Mostly Cloudy
4:06 PM 62.6 °F - 41.0 °F 45% 30.36 in 10.0 mi ESE 15.0 mph 18.4 mph N/A   Scattered Clouds
4:24 PM 62.6 °F - 41.0 °F 45% 30.35 in 10.0 mi SE 10.4 mph 17.3 mph N/A   Clear
4:45 PM 60.8 °F - 41.0 °F 48% 30.35 in 10.0 mi East 10.4 mph 16.1 mph N/A   Clear
5:24 PM 60.8 °F - 41.0 °F 48% 30.35 in 10.0 mi ESE 11.5 mph - N/A   Clear
5:45 PM 60.8 °F - 41.0 °F 48% 30.35 in 10.0 mi ESE 12.7 mph - N/A   Clear
6:06 PM 59.0 °F - 41.0 °F 51% 30.35 in 10.0 mi ESE 11.5 mph - N/A   Clear
6:27 PM 57.2 °F - 41.0 °F 55% 30.35 in 10.0 mi ESE 9.2 mph - N/A   Clear
6:45 PM 57.2 °F - 41.0 °F 55% 30.36 in 10.0 mi SE 6.9 mph - N/A   Clear
7:06 PM 55.4 °F - 41.0 °F 58% 30.36 in 10.0 mi ESE 10.4 mph - N/A   Clear
7:27 PM 53.6 °F - 41.0 °F 62% 30.37 in 10.0 mi SE 9.2 mph - N/A   Clear
7:45 PM 53.6 °F - 39.2 °F 58% 30.37 in 10.0 mi ESE 8.1 mph - N/A   Clear
8:06 PM 51.8 °F - 39.2 °F 62% 30.37 in 10.0 mi SE 9.2 mph - N/A   Clear
8:27 PM 51.8 °F - 39.2 °F 62% 30.37 in 10.0 mi ESE 6.9 mph - N/A   Clear
8:45 PM 50.0 °F - 39.2 °F 66% 30.37 in 10.0 mi ESE 6.9 mph - N/A   Clear
10:06 PM 46.4 °F - 39.2 °F 76% 30.38 in 10.0 mi Calm Calm - N/A   Clear
10:27 PM 42.8 °F - 37.4 °F 81% 30.38 in 10.0 mi Calm Calm - N/A   Clear
10:45 PM 42.8 °F 41.1 °F 37.4 °F 81% 30.37 in 10.0 mi ESE 3.5 mph - N/A   Clear
11:06 PM 42.8 °F 41.1 °F 37.4 °F 81% 30.37 in 10.0 mi East 3.5 mph - N/A   Clear
11:27 PM 41.0 °F - 37.4 °F 87% 30.37 in 10.0 mi Calm Calm - N/A   Clear
11:45 PM 41.0 °F - 37.4 °F 87% 30.37 in 10.0 mi Calm Calm - N/A   Clear